STARLINK-3237

decayed
NORAD ID: 49726 Int'l Des: 2021-115 Owner: SPXS Country: US Constellation: starlink
LEOCIRCULAR

关于 STARLINK-3237

正在加载描述...

高度历史

Altitude vs Time

uPlot chart will show altitude changes over time

两行轨道根数

1 49726U 21115C 24257.92825407 .19304775 12371-4 16463-2 0 9991
2 49726 53.1816 24.0384 0010462 290.7044 171.6385 16.38487699155377
Epoch: Sep 13, 2024 • Age: 8806 hours

当前状态

Position data unavailable
发射日期 Dec 2, 2021
运行时间 3.7 years
衰减日期 Sep 14, 2024
类型 internet

技术详情

分类 Payload
质量 290.00 kg
干质量 270.00 kg
总质量 290.00 kg
长度 0.20 m
直径 2.80 m
跨度 9.00 m
形状 Box + pan
制造商 SPXS
平台类型 Starlink
阶段状态 Unknown Transfer Status
所有者/国家 SPXS/US

大型星座

Loading constellations...